When you browse on this site, cookies collect data to enhance your experience and personalize the content and advertising you see.
Visit our Privacy Policy to learn more. By continuing to use the site, you agree to this use of cookies and data.

Hourly Weather Hrazdan

Today, 18 September, Friday

Time Temperature Precipitation Wind Pressure Humidity
00:00 +14°C° 0 mm 1 mps 616 mmHg 83%
01:00 +13°C° 0 mm 1 mps 616 mmHg 83%
02:00 +13°C° 0 mm 1 mps 615 mmHg 83%
03:00 +13°C° 0 mm 1 mps 615 mmHg 84%
04:00 +13°C° 0 mm 1 mps 615 mmHg 82%
05:00 +13°C° 0 mm 1 mps 615 mmHg 81%
06:00 +13°C° 0 mm 1 mps 615 mmHg 80%
07:00 +16°C° 0 mm 1 mps 615 mmHg 70%
08:00 +19°C° 0 mm 1 mps 616 mmHg 60%
09:00 +21°C° 0 mm 2 mps 617 mmHg 50%
10:00 +23°C° 0 mm 2 mps 617 mmHg 44%
11:00 +24°C° 0 mm 3 mps 617 mmHg 39%
12:00 +25°C° 0 mm 3 mps 617 mmHg 33%
13:00 +25°C° 0 mm 3 mps 617 mmHg 32%
14:00 +26°C° 0 mm 3 mps 616 mmHg 30%
15:00 +26°C° 0 mm 3 mps 616 mmHg 28%
16:00 +22°C° 0.1 mm 3 mps 615 mmHg 38%
17:00 +20°C° 0.1 mm 2 mps 614 mmHg 47%
18:00 +19°C° 0.1 mm 1 mps 614 mmHg 57%
19:00 +17°C° 0 mm 2 mps 613 mmHg 63%
20:00 +16°C° 0 mm 2 mps 613 mmHg 70%
21:00 +15°C° 0 mm 2 mps 613 mmHg 77%
22:00 +15°C° 0 mm 2 mps 613 mmHg 75%
23:00 +14°C° 0 mm 2 mps 613 mmHg 73%

Tomorrow, 19 September, Saturday

Time Temperature Precipitation Wind Pressure Humidity
00:00 +14°C° 0 mm 2 mps 613 mmHg 71%
01:00 +14°C° 0 mm 2 mps 613 mmHg 69%
02:00 +14°C° 0 mm 2 mps 612 mmHg 67%
03:00 +14°C° 0 mm 2 mps 612 mmHg 65%
04:00 +14°C° 0 mm 1 mps 612 mmHg 63%
05:00 +14°C° 0 mm 1 mps 612 mmHg 61%
06:00 +13°C° 0 mm 1 mps 612 mmHg 59%
07:00 +16°C° 0 mm 2 mps 613 mmHg 51%
08:00 +18°C° 0 mm 2 mps 614 mmHg 44%
09:00 +21°C° 0 mm 2 mps 615 mmHg 36%
10:00 +21°C° 0 mm 3 mps 615 mmHg 34%
11:00 +22°C° 0 mm 3 mps 615 mmHg 33%
12:00 +24°C° 0 mm 3 mps 615 mmHg 31%
13:00 +24°C° 0 mm 3 mps 615 mmHg 32%
14:00 +23°C° 0 mm 4 mps 614 mmHg 32%
15:00 +23°C° 0 mm 4 mps 614 mmHg 32%
16:00 +21°C° 0 mm 3 mps 613 mmHg 40%
17:00 +19°C° 0 mm 3 mps 613 mmHg 49%
18:00 +17°C° 0 mm 2 mps 612 mmHg 57%
19:00 +16°C° 0 mm 2 mps 612 mmHg 59%
20:00 +15°C° 0 mm 2 mps 613 mmHg 61%
21:00 +14°C° 0 mm 2 mps 613 mmHg 64%
22:00 +14°C° 0 mm 1 mps 613 mmHg 65%
23:00 +13°C° 0 mm 1 mps 613 mmHg 66%

Day after tomorrow, 20 September, Sunday

Time Temperature Precipitation Wind Pressure Humidity
00:00 +13°C° 0 mm 1 mps 613 mmHg 67%
01:00 +12°C° 0 mm 1 mps 613 mmHg 69%
02:00 +12°C° 0 mm 1 mps 613 mmHg 72%
03:00 +11°C° 0 mm 1 mps 613 mmHg 74%
04:00 +11°C° 0 mm 1 mps 613 mmHg 76%
05:00 +10°C° 0 mm 2 mps 613 mmHg 78%
06:00 +9°C° 0 mm 2 mps 613 mmHg 80%
07:00 +12°C° 0 mm 2 mps 614 mmHg 75%
08:00 +14°C° 0 mm 2 mps 614 mmHg 69%
09:00 +16°C° 0 mm 2 mps 615 mmHg 64%
10:00 +17°C° 0 mm 2 mps 615 mmHg 60%
11:00 +18°C° 0 mm 3 mps 615 mmHg 57%
12:00 +19°C° 0 mm 3 mps 615 mmHg 54%
13:00 +19°C° 0 mm 3 mps 615 mmHg 53%
14:00 +19°C° 0 mm 3 mps 615 mmHg 52%
15:00 +19°C° 0 mm 3 mps 614 mmHg 52%
16:00 +17°C° 0 mm 3 mps 614 mmHg 61%
17:00 +16°C° 0 mm 3 mps 613 mmHg 70%
18:00 +14°C° 0 mm 2 mps 612 mmHg 79%
19:00 +12°C° 0 mm 3 mps 613 mmHg 81%
20:00 +11°C° 0 mm 3 mps 613 mmHg 82%
21:00 +11°C° 0 mm 3 mps 613 mmHg 84%
22:00 +11°C° 0 mm 3 mps 613 mmHg 84%
23:00 +10°C° 0 mm 2 mps 613 mmHg 85%

21 September, Monday

Time Temperature Precipitation Wind Pressure Humidity
00:00 +10°C° 0 mm 2 mps 613 mmHg 85%
01:00 +10°C° 0 mm 2 mps 613 mmHg 86%
02:00 +10°C° 0 mm 2 mps 613 mmHg 86%
03:00 +10°C° 0 mm 2 mps 613 mmHg 87%
04:00 +10°C° 0 mm 2 mps 614 mmHg 87%
05:00 +10°C° 0 mm 2 mps 614 mmHg 88%
06:00 +10°C° 0 mm 2 mps 614 mmHg 88%
07:00 +13°C° 0 mm 2 mps 615 mmHg 83%
08:00 +14°C° 0 mm 2 mps 615 mmHg 78%
09:00 +15°C° 0 mm 2 mps 616 mmHg 73%
10:00 +16°C° 0.2 mm 2 mps 616 mmHg 69%
11:00 +17°C° 0.2 mm 3 mps 616 mmHg 66%
12:00 +18°C° 0.2 mm 3 mps 617 mmHg 62%
13:00 +18°C° 0.2 mm 3 mps 616 mmHg 63%
14:00 +18°C° 0.2 mm 3 mps 616 mmHg 64%
15:00 +18°C° 0.2 mm 3 mps 615 mmHg 64%
16:00 +16°C° 0.1 mm 3 mps 615 mmHg 71%
17:00 +14°C° 0.1 mm 3 mps 614 mmHg 77%
18:00 +13°C° 0.1 mm 3 mps 614 mmHg 84%
19:00 +12°C° 0 mm 3 mps 614 mmHg 85%
20:00 +12°C° 0 mm 3 mps 614 mmHg 86%
21:00 +11°C° 0 mm 3 mps 614 mmHg 87%
22:00 +11°C° 0.2 mm 3 mps 614 mmHg 88%
23:00 +12°C° 0.2 mm 2 mps 614 mmHg 88%

22 September, Tuesday

Time Temperature Precipitation Wind Pressure Humidity
00:00 +12°C° 0.2 mm 2 mps 614 mmHg 88%
01:00 +12°C° 0 mm 2 mps 614 mmHg 88%
02:00 +12°C° 0 mm 2 mps 614 mmHg 88%
03:00 +12°C° 0 mm 2 mps 613 mmHg 88%
04:00 +12°C° 0 mm 2 mps 613 mmHg 87%
05:00 +12°C° 0 mm 1 mps 613 mmHg 87%
06:00 +12°C° 0 mm 1 mps 613 mmHg 86%
07:00 +13°C° 0 mm 1 mps 614 mmHg 79%
08:00 +15°C° 0 mm 1 mps 615 mmHg 71%
09:00 +18°C° 0 mm 1 mps 615 mmHg 64%
10:00 +18°C° 0.1 mm 2 mps 616 mmHg 58%
11:00 +20°C° 0.1 mm 2 mps 616 mmHg 52%
12:00 +21°C° 0.1 mm 3 mps 616 mmHg 46%
13:00 +21°C° 0.1 mm 3 mps 616 mmHg 46%
14:00 +21°C° 0.1 mm 2 mps 615 mmHg 47%
15:00 +21°C° 0.1 mm 2 mps 615 mmHg 47%
16:00 +19°C° 0.1 mm 2 mps 614 mmHg 56%
17:00 +17°C° 0.1 mm 2 mps 613 mmHg 66%
18:00 +15°C° 0.1 mm 2 mps 613 mmHg 76%
19:00 +14°C° 0.2 mm 3 mps 613 mmHg 79%
20:00 +13°C° 0.2 mm 3 mps 613 mmHg 81%
21:00 +13°C° 0.2 mm 4 mps 614 mmHg 84%
22:00 +12°C° 0.4 mm 3 mps 614 mmHg 86%
23:00 +12°C° 0.4 mm 3 mps 614 mmHg 88%

23 September, Wednesday

Time Temperature Precipitation Wind Pressure Humidity
00:00 +12°C° 0.4 mm 3 mps 614 mmHg 90%
01:00 +12°C° 0.2 mm 3 mps 614 mmHg 89%
02:00 +11°C° 0.2 mm 3 mps 614 mmHg 89%
03:00 +11°C° 0.2 mm 3 mps 614 mmHg 88%
04:00 +11°C° 0.1 mm 3 mps 614 mmHg 88%
05:00 +12°C° 0.1 mm 2 mps 614 mmHg 89%
06:00 +12°C° 0.1 mm 2 mps 614 mmHg 89%
07:00 +13°C° 0 mm 2 mps 614 mmHg 85%
08:00 +14°C° 0 mm 2 mps 615 mmHg 81%
09:00 +15°C° 0 mm 2 mps 615 mmHg 77%
10:00 +16°C° 0.1 mm 2 mps 616 mmHg 73%
11:00 +16°C° 0.1 mm 2 mps 616 mmHg 70%
12:00 +17°C° 0.1 mm 3 mps 616 mmHg 67%
13:00 +17°C° 0.1 mm 3 mps 616 mmHg 68%
14:00 +17°C° 0.1 mm 3 mps 615 mmHg 70%
15:00 +16°C° 0.1 mm 3 mps 615 mmHg 72%
16:00 +14°C° 0 mm 3 mps 615 mmHg 76%
17:00 +13°C° 0 mm 3 mps 614 mmHg 81%
18:00 +12°C° 0 mm 3 mps 614 mmHg 86%
19:00 +12°C° 0 mm 3 mps 614 mmHg 87%
20:00 +11°C° 0 mm 3 mps 614 mmHg 87%
21:00 +11°C° 0 mm 3 mps 614 mmHg 88%
22:00 +11°C° 0 mm 3 mps 615 mmHg 88%
23:00 +12°C° 0 mm 2 mps 615 mmHg 88%
Show more